Location: Ecklingerode
(51.5036°N, 10.3122°E)
Time: 06:39:45
(UTC+00:00)

ERBS - Pass Details

Date: 29 October 2020
Orbit: 406 x 422 km, 57.0° (Epoch: 01 December)

Event Time Altitude Azimuth Distance (km) Brightness Sun altitude
Rises 16:40:50 0° 283° (WNW) 2,364 7.4 -7.4°
Reaches altitude 10° 16:43:05 10° 294° (WNW) 1,504 6.0 -7.8°
Maximum altitude 16:46:06 31° 358° (N) 776 3.5 -8.2°
Enters shadow 16:48:59 11° 61° (ENE) 1,447 4.4 -8.7°
